Regional Weather Roundup
Issued by NWS

Home | Current Version | Previous Version | Text Only | Print | Product List | Glossary Off
Versions: 1 2 3 4 5 6 7 8 9 10 11 12 13 14 15 16 17 18 19 20 21 22 23 24 25 26 27 28

000
ASUS45 KSLC 291810
RWRUT

UTAH REGIONAL WEATHER ROUNDUP
NATIONAL WEATHER SERVICE SALT LAKE CITY UT
1200 PM MDT FRI APR 29 2016

UTZ001>011-023>025-291900-

NORTHERN UTAH

CITY           SKY/WX    TMP DP  RH WIND       PRES   REMARKS
BRIGHAM CITY   CLOUDY    50  31  49 CALM      29.91S
HILL AFB       CLOUDY    49  35  57 S8        29.90S
LOGAN          CLOUDY    51  30  44 VRB7      29.89S
OGDEN          CLOUDY    50  31  48 CALM      29.89S
PROVO AIRPORT  PTSUNNY   45  36  70 CALM      29.91S
SALT LAKE CITY PTSUNNY   50  34  54 SE3       29.90S
VERNAL         CLOUDY    44  36  73 VRB3      29.87F
WENDOVER       PTSUNNY   55  34  44 NW9       29.91S
HEBER CITY     DRIZZLE   43  32  65 CALM      29.89F

$$

UTZ012>022-026-027-291900-

SOUTHERN/CENTRAL UTAH

CITY           SKY/WX    TMP DP  RH WIND       PRES   REMARKS
BLANDING       CLOUDY    46  35  66 SW7       29.94S
BRYCE CANYON   MOSUNNY   45  30  55 NW16      29.93F
CEDAR CITY     PTSUNNY   51  37  58 N8        29.93S
DELTA          PTSUNNY   52  36  54 NW8G17    29.91F
MILFORD        PTSUNNY   54  37  52 NE5       29.92S
MOAB/CYNLANDS  MOSUNNY   52  40  63 W3        29.83F
PRICE          MOSUNNY   48  33  56 NW5       29.85F
ST GEORGE      MOCLDY    61  45  55 SW8       29.92F

$$

REGIONAL REPORTS     COLORADO/ARIZONA

CITY           SKY/WX    TMP DP  RH WIND       PRES   REMARKS
CRAIG, CO      LGT RAIN  44  37  76 SW5       29.85F
GRAND JUNCTION MOSUNNY   52  37  56 W9        29.83F
RIFLE          CLOUDY    51  36  56 W6        29.82S
MONTROSE       LGT RAIN  45  34  65 NW6       29.86S
CORTEZ         CLOUDY    50  32  50 VRB3      29.86F
PAGE, AZ       PTSUNNY   56  38  50 MISG      29.87F
GRAND CANYON   PTSUNNY   46  37  71 W7        29.97R
KINGMAN        SUNNY     61  43  51 VRB3      29.95F
FLAGSTAFF      PTSUNNY   44  33  65 W8G20     29.97R

$$

REGIONAL REPORTS    NEVADA/IDAHO/WYOMING

CITY           SKY/WX    TMP DP  RH WIND       PRES   REMARKS
LAS VEGAS, NV  MOSUNNY   67  38  34 VRB3      29.87F
ELY            LGT RAIN  39  35  86 W12       29.97R WCI  32
ELKO           CLOUDY    48  37  65 NW7       29.94R
POCATELLO, ID  LGT RAIN  49  39  68 W10       29.90S
BURLEY         PTSUNNY   51  41  68 VRB7      29.88F
EVANSTON, WY   CLOUDY    35  26  69 VRB3      29.92R
ROCK SPRINGS   CLOUDY    35  28  75 NE12      29.92S WCI  27
KEMMERER       CLOUDY    34  28  80 E9        29.93R WCI  26

$$




USA.gov is the U.S. government's official web portal to all federal, state and local government web resources and services.